Location: Altmatt
(47.1333°N, 8.7000°E)
Time: 06:56:13
(UTC+00:00)

Cosmos 1371 Rocket - Pass Details

Date: 13 July 2020
Orbit: 753 x 790 km, 74.0° (Epoch: 05 August)

Event Time Altitude Azimuth Distance (km) Brightness Sun altitude
Rises 21:11:14 0° 334° (NNW) 3,256 9.1 -14.3°
Reaches altitude 10° 21:13:38 10° 331° (NNW) 2,330 7.9 -14.6°
Maximum altitude 21:18:50 61° 253° (WSW) 886 4.4 -15.0°
Enters shadow 21:22:29 20° 178° (S) 1,752 5.3 -15.4°
